FALCON 9 DEB, 52893

Orbit data source: Space-Track

FALCON 9 DEB, 52893 is space debris in LEO originally from a launch on Sun, 19 Jun 2022 UTC launched from the Air Force Eastern Test Range (AFETR). Debris objects in space refer to the collection of defunct objects orbiting the Earth. Examples of debris include non-operational satellites, rocket bodies, and fragments generated from explosions, collisions, or faulty payload assembly.

Loading next visibility...
Identifier
52893, 2022-064F
Orbit
LEO
Country
Flag of USUS
Related business
Manufacturer
SpaceX/Seattle
Mission
Spacecraft
Bus & Motor
Unknown
Mass
~50 kg wet, ~50 kg dry
Launch date (UTC)
2022-06-19 (3 years ago)
Launch vehicle
Unknown
Launch site
Air Force Eastern Test Range (AFETR)
Object type
Payload
Rocket body
Debris
Shape & HBR
Cyl, 3.5 m
Radar Cross Section
0.110 m², Medium (>0.1 m² and < 1m²)

Expand to show TLE details & history
Last TLE update: 15 hours ago

TLE from 15 hours ago
0 FALCON 9 DEB
1 52893U 22064F   25291.53649963  .00013445  00000-0  42683-3 0  9998
2 52893  52.9921  24.8266 0008147 110.2898 249.8978 15.32963411142610
Epoch: 2025-10-18T12:52Z
TLE epoch observation values (Epoch: 2025-10-18T12:52:33.568Z)
Latitude
-0°
Longitude
164.42062°
Altitude
469.78 km
Speed
7.631 km/s
True Right ascension
01h 39m 18s
True Declination
0° 00' 00"
Sunlit
Object was in full shadow at epoch
Visualization orbit readout
Latitude
Unknown
Longitude
Unknown
Altitude
Unknown
Speed
Unknown
Apparent Right ascension
Unknown
Apparent Declination
Unknown
Sunlit
N/A
Visualization observer readout
Local Sidereal Time
23:07:10
Azimuth
Unknown
Elevation
Unknown
Doppler factor
Unknown
Orbital elements
Apogee altitude
472.837 km
Perigee altitude
461.683 km
Semi-major axis
6,845.397 km
Eccentricity
0.00081
Inclination
52.9921°
RAAN
24.8266°
Arg. of periapsis
110.2898°
True anomaly
249.81016°
Mean anomaly
249.8978°
Eccentric anomaly
249.85398°
Mean motion
3.83217 °/min
Orbital period
93.94 mins
BSTAR
0.00042683
Loading maneuver chart data...
Computing Atmospheric mass density...
Loading historical data...
Loading historical data...
Loading historical data...
Loading historical data...
Loading historical data...
Loading historical data...
Loading historical data...
Other satellites on launch #64 in the year 2022 (2022-06-19 UTC)

Documentation

Showing up to 5 results
|